This demonstration page uses our WeatherBlox Daily Observations layout. Learn more.

Left ArrowRight Arrow

Hourly Observations for May 16, 2015

Temp ( °F °C ) Dew Point ( °F °C ) Humidity (%) Winds ( mph kmh ) Pressure ( in mb ) Visibility ( mi km ) Precip ( " mm )
12:15 am 00:15 Clear 66 19 61 16 83 83 SSE 6 9 30.18 1022 10 16 N/A
12:35 am 00:35 Clear 68 20 61 16 78 78 SSE 5 7 30.18 1022 10 16 N/A
12:50 am 00:50 Clear 66 19 61 16 83 83 SE 3 6 30.18 1022 10 16 N/A
1:15 am 01:15 Clear 63 17 61 16 94 94 S 5 7 30.18 1022 10 16 N/A
1:35 am 01:35 Clear 64 18 61 16 88 88 N N/A 30.18 1022 10 16 N/A
1:55 am 01:55 Clear 63 17 61 16 94 94 N N/A 30.18 1022 10 16 N/A
2:15 am 02:15 Clear 63 17 61 16 94 94 S 5 7 30.15 1021 10 16 N/A
2:35 am 02:35 Clear 63 17 61 16 94 94 S 5 7 30.15 1021 10 16 N/A
2:55 am 02:55 Clear 63 17 61 16 94 94 S 5 7 30.15 1021 10 16 N/A
3:15 am 03:15 Clear 63 17 61 16 94 94 SSW 5 7 30.15 1021 10 16 N/A
3:35 am 03:35 Clear 63 17 61 16 94 94 S 3 6 30.15 1021 10 16 N/A
3:55 am 03:55 Clear 63 17 61 16 94 94 N N/A 30.15 1021 10 16 N/A
4:15 am 04:15 Clear 61 16 61 16 100 100 N N/A 30.15 1021 10 16 N/A
4:35 am 04:35 Clear 61 16 61 16 100 100 N N/A 30.15 1021 10 16 N/A
4:55 am 04:55 Partly Cloudy 61 16 61 16 100 100 N N/A 30.15 1021 10 16 N/A
5:15 am 05:15 Clear 61 16 61 16 100 100 N N/A 30.15 1021 7 11 N/A
5:35 am 05:35 Clear 61 16 61 16 100 100 N N/A 30.15 1021 7 11 N/A
5:55 am 05:55 Clear with Mist and Fog 59 15 59 15 100 100 N N/A 30.15 1021 5 8 N/A
6:15 am 06:15 Sunny with Mist and Fog 59 15 59 15 100 100 N N/A 30.15 1021 5 8 N/A
6:35 am 06:35 Sunny with Mist and Fog 59 15 59 15 100 100 N N/A 30.15 1021 5 8 N/A
6:55 am 06:55 Sunny 61 16 61 16 100 100 N N/A 30.18 1022 7 11 N/A
7:15 am 07:15 Sunny with Mist and Fog 63 17 63 17 100 100 N N/A 30.18 1022 5 8 N/A
7:35 am 07:35 Sunny 64 18 64 18 100 100 S 3 6 30.18 1022 7 11 N/A
7:55 am 07:55 Sunny 66 19 64 18 94 94 S 3 6 30.18 1022 7 11 N/A
8:15 am 08:15 Sunny 68 20 64 18 88 88 SSW 3 6 30.18 1022 7 11 N/A
8:35 am 08:35 Sunny 70 21 66 19 88 88 N N/A 30.18 1022 10 16 N/A
8:55 am 08:55 Sunny 70 21 64 18 83 83 N N/A 30.18 1022 10 16 N/A
9:15 am 09:15 Sunny 72 22 64 18 78 78 N N/A 30.21 1023 10 16 N/A
9:35 am 09:35 Sunny 72 22 66 19 83 83 N N/A 30.21 1023 10 16 N/A
9:55 am 09:55 Sunny 75 24 66 19 74 74 S 5 7 30.18 1022 10 16 N/A
10:15 am 10:15 Partly Cloudy 77 25 68 20 74 74 SW 5 7 30.21 1023 10 16 N/A
10:35 am 10:35 Partly Cloudy 79 26 68 20 70 70 SSW 5 7 30.18 1022 10 16 N/A
10:55 am 10:55 Mostly Cloudy 79 26 68 20 70 70 SSW 6 9 30.18 1022 10 16 N/A
11:15 am 11:15 Partly Cloudy 81 27 66 19 62 62 WNW 7 11 30.18 1022 10 16 N/A
11:35 am 11:35 Sunny 81 27 66 19 62 62 WNW 13 20 30.18 1022 10 16 N/A
11:55 am 11:55 Partly Cloudy 82 28 68 20 62 62 W 8 13 30.18 1022 10 16 N/A
12:15 pm 12:15 Partly Cloudy 82 28 66 19 58 58 N N/A 30.18 1022 10 16 N/A
12:35 pm 12:35 Partly Cloudy 84 29 66 19 55 55 SW 3 6 30.15 1021 10 16 N/A
12:55 pm 12:55 Partly Cloudy 82 28 66 19 58 58 N N/A 30.15 1021 10 16 N/A
1:15 pm 13:15 Sunny 84 29 66 19 55 55 SSE 6 9 30.15 1021 10 16 N/A
1:35 pm 13:35 Sunny 86 30 66 19 52 52 SE 3 6 30.15 1021 10 16 N/A
1:55 pm 13:55 Sunny 86 30 68 20 55 55 S 12 19 30.15 1021 10 16 N/A
2:15 pm 14:15 Sunny 88 31 68 20 52 52 WSW 7 11 30.15 1021 10 16 N/A
2:35 pm 14:35 Partly Cloudy 88 31 68 20 52 52 SW 9 15 30.15 1021 10 16 N/A
2:55 pm 14:55 Partly Cloudy 88 31 68 20 52 52 WSW 8 13 30.12 1020 10 16 N/A
3:15 pm 15:15 Sunny 88 31 68 20 52 52 S 16 26 30.12 1020 10 16 N/A
3:35 pm 15:35 Sunny 88 31 68 20 52 52 SSW 13 20 30.12 1020 10 16 N/A
3:55 pm 15:55 Sunny 86 30 68 20 55 55 SW 8 13 30.09 1019 10 16 N/A
4:15 pm 16:15 Partly Cloudy 86 30 68 20 55 55 S 6 9 30.09 1019 10 16 N/A
4:35 pm 16:35 Partly Cloudy 82 28 68 20 62 62 N N/A 30.12 1020 10 16 N/A
4:55 pm 16:55 Cloudy 77 25 70 21 79 79 WSW 21 33 30.15 1021 2 3 0.14 3.56
5:15 pm 17:15 Cloudy with Strong Thunderstorms 68 20 68 20 100 100 WNW 10 17 30.18 1022 1 2 0.57 14.48
5:35 pm 17:35 Cloudy with Nearby Thunderstorms 68 20 68 20 100 100 N 9 15 30.15 1021 4 6 0.87 22.10
5:55 pm 17:55 Cloudy with Nearby Thunderstorms 68 20 68 20 100 100 N 5 7 30.15 1021 10 16 0.91 23.11
6:15 pm 18:15 Cloudy with Light Rain 68 20 68 20 100 100 ESE 6 9 30.15 1021 10 16 0.01 0.25
6:35 pm 18:35 Partly Cloudy 68 20 68 20 100 100 SE 5 7 30.15 1021 10 16 0.01 0.25
6:55 pm 18:55 Mostly Cloudy 70 21 70 21 100 100 N N/A 30.15 1021 10 16 0.01 0.25
7:15 pm 19:15 Partly Cloudy 70 21 70 21 100 100 N N/A 30.15 1021 10 16 N/A
7:35 pm 19:35 Sunny 70 21 70 21 100 100 SW 3 6 30.15 1021 10 16 N/A
7:55 pm 19:55 Sunny 70 21 70 21 100 100 SW 3 6 30.18 1022 10 16 N/A
8:15 pm 20:15 Sunny 70 21 70 21 100 100 WSW 3 6 30.18 1022 10 16 N/A
8:35 pm 20:35 Clear 68 20 68 20 100 100 N N/A 30.18 1022 10 16 N/A
8:55 pm 20:55 Mostly Cloudy 68 20 68 20 100 100 N N/A 30.18 1022 10 16 N/A
9:15 pm 21:15 Cloudy 70 21 70 21 100 100 N N/A 30.18 1022 10 16 N/A
9:35 pm 21:35 Cloudy 70 21 70 21 100 100 S 5 7 30.18 1022 10 16 N/A
9:55 pm 21:55 Cloudy 70 21 70 21 100 100 S 3 6 30.18 1022 10 16 N/A
10:15 pm 22:15 Cloudy 70 21 70 21 100 100 SSW 3 6 30.21 1023 10 16 N/A
10:35 pm 22:35 Cloudy 68 20 68 20 100 100 N N/A 30.18 1022 10 16 N/A
10:55 pm 22:55 Cloudy 68 20 68 20 100 100 N N/A 30.18 1022 7 11 N/A
11:15 pm 23:15 Cloudy 68 20 68 20 100 100 SSW 3 6 30.18 1022 7 11 N/A
11:35 pm 23:35 Cloudy 68 20 68 20 100 100 S 3 6 30.18 1022 7 11 N/A
11:55 pm 23:55 Cloudy 68 20 68 20 100 100 SSW 3 6 30.18 1022 7 11 N/A

Powered by AerisWeather